DELTA 1 DEB

Satellite information

Favourite Embed

Satellite Type and Status

DEBRISIN ORBIT

Key statistics

Satellite DELTA 1 DEB at a glance.

Uptime

18290

Days in orbit

Revolutions

≈ 12.8

Per day

Orbit

SSO

Sun Synchronous Orbit

Inclination

99.6

Latest

Satellite identification and parameters

Extended collection of information and parameters for DELTA 1 DEB.

Object identification

Identified? True

Debris? True

Object name: DELTA 1 DEB

International designator: 1975-052HL

Object number (NORAD): 21566

Object ID (CCSDS): 21566

Country: UNITED STATES OF AMERICA (US)

Current information (Y/N): Y

RCS size: SMALL

Orbital parameters

Period: 112.167 minutes

Inclination: 99.6062 deg

SMA: 7704.363 km

Apoapsis: 1577.472 km

Periapsis: 1074.984 km

RAAN: 240.8616 deg

Eccentricy: 0.0326106

Argument of periapsis: 183.1893 deg

Mean anomaly: 333.9157 deg

Mean motion: 12.83800768 rev/day

Mean motion (dot): 0.00000158 rev/day2

B* drag term: 0.00064196 1/REarth

Two-line elements (TLE)

Creation date: July 8, 2025, 10:26 p.m.

Reference frame: TEME

Reference center: EARTH

Epoch: July 8, 2025, 2:50 p.m. UTC

TLE line 0: 0 DELTA 1 DEB

TLE line 1: 1 21566U 75052HL 25189.61846828 .00000158 00000-0 64196-3 0 9990

TLE line 2: 2 21566 99.6062 240.8616 0326106 183.1893 333.9157 12.83800768599795

Live tracking on map

Real-time ground track for satellite DELTA 1 DEB.

In-orbit conjunctions

A list of the most updated potential collisions computed for object DELTA 1 DEB.

Target Orbit TCA Probability of collision Miss distance Type
COSMOS 825 LEO 2025-06-30 10:02:51 0.0001052963 452.0 (m) PAYLOAD
CZ-4C DEB LEO 2024-10-21 10:54:09 0.0001120281 136.0 (m) DEBRIS

Associated space launch

Experimental meteorological satellite

DELTA 1 DEB was lifted into orbit during the mission ‘Delta 2910 | Nimbus 6’, on board a Delta 2910 space rocket.

The launch took place on June 12, 1975, 8:12 a.m. from Space Launch Complex 2W.

For more information about the launch, click the button.

Launch to space Delta 2910 | Nimbus 6
Delta 2910 | Nimbus 6

Agency: N/A

Status: Launch Successful

Launch date: June 12, 1975, 8:12 a.m. UTC

Rocket: Delta 2910

Launch pad: Space Launch Complex 2W

Location: Vandenberg SFB, CA, USA

...

Latest news about this satellite

There are no fresh news available about this satellite. Check back as we update our databases every day.


Newsletter sign-up

Weekly statistics, charts and insights to help you stay on top of the space industry.